EW9368 Weather Reports


Display with metric or nautical units.
time (UTC)temp
F
wind
direction
speed
MPH
gust
MPH
rain 1hr
in
rain 24hr
in
rain mn
in
humidity
%
barometer
mb
20260906203004 79 233 0.0 7.0 0.00 0.00 0.00 68 1009.9
20260906201501 77 214 2.0 9.0 0.00 0.00 0.00 72 1009.9
20260906194605 74 294 8.0 13.0 0.00 0.00 0.00 76 1010.2
20260906193108 74 285 8.0 15.0 0.00 0.00 0.00 77 1010.8
20260906191618 74 265 9.0 13.0 0.00 0.00 0.00 77 1010.9
20260906190100 74 270 8.0 12.0 0.00 0.00 0.00 77 1011.2
20260906184558 74 281 9.0 14.0 0.00 0.00 0.00 77 1011.1
20260906183101 74 264 11.0 17.0 0.00 0.00 0.00 77 1011.0
20260906181557 74 271 12.0 19.0 0.00 0.00 0.00 75 1011.0
20260906180057 75 250 15.0 21.0 0.00 0.00 0.00 72 1010.8
20260906174609 76 248 12.0 27.0 0.00 0.00 0.00 74 1010.9
20260906173053 77 224 19.0 27.0 0.00 0.00 0.00 73 1010.6
20260906171551 77 221 18.0 27.0 0.00 0.00 0.00 78 1011.0
20260906170051 77 233 18.0 25.0 0.00 0.00 0.00 82 1011.1
20260906164550 78 119 3.0 12.0 0.00 0.00 0.00 87 1011.2
20260906163052 77 317 3.0 11.0 0.00 0.00 0.00 87 1011.2
20260906161550 77 213 3.0 12.0 0.00 0.00 0.00 87 1011.1
20260906160047 77 24 5.0 15.0 0.00 0.00 0.00 87 1010.9
20260906154545 78 175 8.0 16.0 0.00 0.00 0.00 87 1010.7
20260906153100 78 169 8.0 19.0 0.00 0.00 0.00 86 1010.5
20260906151544 77 165 5.0 10.0 0.00 0.00 0.00 86 1010.1
20260906150044 77 161 6.0 12.0 0.00 0.00 0.00 86 1010.4
20260906144542 77 128 4.0 10.0 0.00 0.00 0.00 85 1010.2
20260906143037 76 116 4.0 9.0 0.00 0.00 0.00 87 1010.4
20260906141538 74 93 2.0 5.0 0.00 0.00 0.00 89 1010.5
20260906140038 73 128 2.0 4.0 0.00 0.00 0.00 90 1010.4
20260906134535 71 311 0.0 3.0 0.00 0.00 0.00 90 1010.6
20260906133044 70 311 0.0 2.0 0.00 0.00 0.00 90 1010.6
20260906131535 69 311 0.0 3.0 0.00 0.00 0.00 90 1010.6
20260906130035 69 311 0.0 3.0 0.00 0.00 0.00 90 1010.8
20260906124531 69 90 0.0 3.0 0.00 0.00 0.00 90 1010.4
20260906123037 69 90 1.0 4.0 0.00 0.00 0.00 90 1010.0
20260906121530 68 81 0.0 4.0 0.00 0.00 0.00 90 1009.8
20260906120027 68 68 2.0 6.0 0.00 0.00 0.00 90 1009.4
20260906114531 68 64 0.0 3.0 0.00 0.00 0.00 90 1009.6
20260906113026 69 78 6.0 10.0 0.00 0.00 0.00 90 1009.4
20260906111522 69 92 6.0 8.0 0.00 0.00 0.00 90 1009.4
20260906110021 69 94 3.0 9.0 0.00 0.00 0.00 89 1009.5
20260906104520 69 83 2.0 9.0 0.00 0.01 0.00 89 1009.6
20260906103018 70 85 4.0 8.0 0.00 0.01 0.00 89 1009.5
20260906101517 71 88 3.0 4.0 0.00 0.01 0.00 88 1009.7
20260906100016 71 91 3.0 4.0 0.00 0.01 0.00 88 1009.9
20260906094515 72 128 0.0 3.0 0.00 0.01 0.00 88 1010.1
20260906093032 71 128 1.0 4.0 0.00 0.01 0.00 88 1010.1
20260906091520 71 135 4.0 8.0 0.00 0.01 0.00 89 1010.1
20260906090013 70 115 4.0 7.0 0.00 0.01 0.00 89 1010.2
20260906084511 70 118 2.0 7.0 0.00 0.01 0.00 88 1010.0
20260906083010 70 92 5.0 9.0 0.00 0.01 0.00 87 1010.1
20260906081505 72 96 4.0 7.0 0.00 0.01 0.00 85 1009.9
20260906080002 72 118 3.0 7.0 0.00 0.01 0.00 86 1009.6
20260906074502 72 115 2.0 7.0 0.00 0.01 0.00 85 1009.5
20260906073159 73 106 3.0 4.0 0.00 0.01 0.00 85 1009.7
20260906071557 73 142 2.0 8.0 0.00 0.01 0.00 85 1009.5
20260906070118 72 121 5.0 8.0 0.00 0.01 0.00 85 1009.2
20260906064556 72 149 4.0 8.0 0.00 0.01 0.00 84 1009.4
20260906063054 73 159 1.0 5.0 0.00 0.01 0.00 84 1009.4
20260906061609 73 159 1.0 3.0 0.00 0.01 0.00 82 1009.5
20260906060048 74 137 4.0 7.0 0.00 0.01 0.00 81 1009.3
20260906054547 75 103 5.0 10.0 0.00 0.01 0.00 79 1009.1
20260906053051 75 148 3.0 10.0 0.00 0.01 0.00 79 1009.1
20260906051545 75 118 3.0 8.0 0.00 0.01 0.00 80 1009.1
20260906050059 74 126 4.0 8.0 0.00 0.01 0.00 81 1009.1
20260906044540 75 94 3.0 8.0 0.00 0.01 0.01 80 1009.4
20260906043048 75 138 1.0 8.0 0.00 0.01 0.01 81 1009.6
20260906041539 75 149 3.0 8.0 0.00 0.01 0.01 81 1009.4
20260906040052 75 98 8.0 14.0 0.00 0.01 0.01 81 1008.8
20260906034540 75 38 9.0 13.0 0.00 0.01 0.01 81 1008.7
20260906033038 76 63 9.0 13.0 0.00 0.01 0.01 79 1008.8
20260906031537 78 120 2.0 4.0 0.00 0.01 0.01 74 1008.8
20260906030037 78 44 2.0 9.0 0.00 0.01 0.01 74 1009.1
20260906024537 77 147 7.0 11.0 0.00 0.01 0.01 76 1008.6
20260906023046 75 123 4.0 7.0 0.00 0.01 0.01 78 1008.9
20260906021535 76 128 0.0 1.0 0.00 0.01 0.01 78 1009.2
20260906020036 76 128 1.0 2.0 0.00 0.01 0.01 76 1009.1
20260906014544 77 128 1.0 2.0 0.00 0.01 0.01 76 1009.3
20260906013034 78 128 0.0 2.0 0.00 0.01 0.01 74 1008.9
20260906011540 78 128 2.0 4.0 0.00 0.01 0.01 72 1008.9
20260906010032 79 94 5.0 7.0 0.00 0.01 0.01 69 1008.9
20260906004532 80 327 1.0 3.0 0.00 0.01 0.01 65 1009.7
20260906003032 81 327 0.0 3.0 0.00 0.01 0.01 63 1009.8
20260906001531 83 134 0.0 0.0 0.00 0.01 0.01 58 1009.4
20260906000031 85 134 0.0 1.0 0.00 0.01 0.01 58 1009.4
20260905234532 86 134 0.0 3.0 0.00 0.01 0.01 54 1009.3
20260905233030 87 144 2.0 6.0 0.00 0.01 0.01 51 1009.0
20260905231529 87 121 6.0 9.0 0.00 0.01 0.01 49 1008.6
20260905230128 88 104 6.0 14.0 0.00 0.01 0.01 48 1008.1
20260905224534 90 100 8.0 15.0 0.00 0.01 0.01 47 1007.4
20260905223033 91 85 10.0 19.0 0.00 0.01 0.01 48 1007.0
20260905221524 91 145 7.0 15.0 0.00 0.01 0.01 47 1007.2
20260905220024 92 109 10.0 17.0 0.00 0.01 0.01 47 1007.6
20260905214521 92 91 11.0 18.0 0.00 0.01 0.01 46 1007.8
20260905213020 93 96 6.0 14.0 0.00 0.01 0.01 46 1007.8
20260905211521 93 84 8.0 17.0 0.00 0.01 0.01 45 1008.1
20260905210017 93 134 8.0 15.0 0.00 0.01 0.01 45 1008.0
20260905204515 92 148 9.0 18.0 0.00 0.01 0.01 46 1008.0